Starlink 5751

operational
NORAD ID: 55576 Int'l Des: 2023-020 Owner: SPXS Country: US Constellation: starlink
LEOCIRCULAR

About Starlink 5751

Description loading...

Live Position

Loading 3D Globe...

Upcoming Passes

Altitude History

Altitude vs Time

uPlot chart will show altitude changes over time

Two-Line Element Set

1 55576U 23020H 25302.48220573 -.00000238 00000-0 -25445-5 0 9998
2 55576 43.0043 331.4831 0001053 266.9317 93.1405 15.02535914149483
Epoch: Oct 29, 2025 • Age: 16 hours

Current Status

Altitude 558.6 km
Velocity 7.58 km/s
Sub-Earth Point 2.58°N, 121.26°W
Launch Date Feb 12, 2023
Age 2.7 years
Type internet

Technical Details

Classification Payload
Mass 305.00 kg
Dry Mass 290.00 kg
Total Mass 305.00 kg
Length 0.20 m
Diameter 2.80 m
Span 9.00 m
Shape Box + pan
Manufacturer SPXS
Bus Type Starlink
Phase Status In Orbit
Owner/State SPXS/US

Large Constellations

Loading constellations...